Location: Unspecified
(0.0000°N, 0.0000°E)
Time: 08:05:25
(UTC+00:00)

ARIANE 6 FM1 Upper Stage - Pass Details

Date: 05 November 2025
Orbit: 523 x 612 km, 62.0° (Epoch: 12 November)

Event Time Altitude Azimuth Distance (km) Brightness Sun altitude
Exits shadow 03:56:05 38° 42° (NE) 872 3.7 -25.8°
Maximum altitude 03:56:43 41° 66° (ENE) 832 3.8 -25.6°
Drops below altitude 10° 04:00:45 10° 136° (SE) 1,896 6.1 -24.7°
Sets 04:03:08 0° 143° (SE) 2,813 7.1 -24.1°
